Home > Weather > Almería > Past weeks

Flag for Spain Past Weather in Almería, Spain — Yesterday and Last 2 Weeks

Now
79 °F

Warm.


Feels Like: 82 °F
Forecast: 71 / 94 °F
Wind: 2 mph from Southwest

Location: Almeria / Aeropuerto

Current Time: Aug 28, 2016 at 11:00:05 PM

Latest Report: Aug 28, 2016 at 10:00 PM


Visibility: N/A

Pressure: 30.07 "Hg

Humidity: 86%

Dew Point: 74 °F

Location of AlmeríaLocation

Past Weather in Almería — Graph

°F

Almería Temperature Yesterday

Maximum temperature yesterday: 89 °F (at 1:00 PM)
Minimum temperature yesterday: 74 °F (at 7:00 AM)
Average temperature yesterday: 80 °F

High & Low Weather Summary for the Past Weeks

 TemperatureHumidityPressure
High94 °F (Aug 24, 3:00 PM)92% (Aug 20, 7:00 AM)30.19 "Hg (Aug 20, 7:00 AM)
Low71 °F (Aug 15, 7:00 AM)23% (Aug 24, 3:00 PM)29.80 "Hg (Aug 18, 8:00 PM)
Average81 °F66%30.01 "Hg
* Reported Aug 13 9:00 PM — Aug 28 9:00 PM, Almería, Weather by CustomWeather, © 2016

Note: Actual official high and low records may vary slightly from our data, if they occured in-between our weather recording intervals... More about our weather records

Advertising

Almería Weather History for the Previous 24 Hours

Scroll right to see more
 ConditionsComfort  
Time TempWeatherWind HumidityBarometerVisibility
9:00 PM
Sun, Aug 28
79 °FWarm.3 mph82%30.06 "HgN/A
8:00 PM80 °FPassing clouds.3 mph82%30.04 "Hg6 mi
7:00 PM81 °FWarm.5 mph78%30.05 "HgN/A
6:00 PM82 °FWarm.5 mph76%30.06 "HgN/A
5:00 PM83 °FPassing clouds.7 mph75%30.07 "Hg6 mi
4:00 PM83 °FWarm.9 mph73%30.08 "HgN/A
3:00 PM83 °FWarm.8 mph71%30.10 "HgN/A
2:00 PM83 °FPassing clouds.8 mph72%30.11 "Hg6 mi
1:00 PM82 °FWarm.8 mph73%30.12 "HgN/A
12:00 PM81 °FWarm.8 mph75%30.13 "HgN/A
11:00 AM80 °FPassing clouds.6 mph76%30.12 "Hg6 mi
10:00 AM79 °FWarm.2 mph78%30.11 "HgN/A
9:00 AM76 °FMild.No wind83%30.10 "HgN/A
8:00 AM74 °FPassing clouds.1 mph86%30.09 "Hg6 mi
7:00 AM74 °FMild.3 mph86%30.06 "HgN/A
6:00 AM74 °FMild.2 mph85%30.06 "HgN/A
5:00 AM74 °FClear.1 mph84%30.07 "Hg19 mi
4:00 AM76 °FMild.No wind85%30.08 "HgN/A
3:00 AM76 °FMild.No wind84%30.09 "HgN/A
2:00 AM77 °FMild.2 mph85%30.10 "HgN/A
1:00 AM77 °FMild.2 mph83%30.11 "HgN/A
12:00 AM77 °FWarm.5 mph81%30.10 "HgN/A
11:00 PM
Sat, Aug 27
78 °FWarm.No wind79%30.09 "HgN/A
Weather by CustomWeather, © 2016

See weather overviewHow to use our weather pages